Flag for Micronesia Weather past 2 weeks in Kolonia, Ponape, Micronesia

Now
76 °F

Sprinkles. Mostly cloudy.


Feels Like: 75 °F
Forecast: 80 / 86 °F
Wind: 5 mph from East

Location: Pohnpei

Current Time: Mar 1, 2015 at 7:55:18 PM

Latest Report: Mar 1, 2015 at 6:51 PM


Visibility: 5 mi

Pressure: 29.83 "Hg

Humidity: 96%

Dew point: 75 °F

Location of KoloniaLocation

Historic Weather in Kolonia — Graph

°F

Kolonia temperature yesterday

Maximum temperature yesterday: 87 °F (at 9:53 AM)
Minimum temperature yesterday: 79 °F (at 10:53 PM)
Average temperature yesterday: 83 °F

Past Weeks' High & Low Weather Summary

 TemperatureHumidityPressure
High89 °F (Feb 20, 1:55 PM)98% (Feb 20, 6:56 AM)29.90 "Hg (Feb 20, 6:56 AM)
Low74 °F (Feb 17, 10:50 AM)65% (Feb 16, 1:53 PM)29.72 "Hg (Feb 16, 2:55 PM)
Average81 °F83%29.81 "Hg
* Reported Feb 14 6:52 PM — Mar 1 6:51 PM, Kolonia, Weather by CustomWeather, © 2015

Note: Actual official high and low records may vary slightly from our data, if they occured in-between our weather recording intervals... More about our weather records

Advertising

Kolonia weather history for previous 24 hours

 ConditionsComfort  
Time TempWeatherWind HumidityBarometerVisibility
6:51 PM
Sun, Mar 1
76 °FSprinkles. Mostly cloudy.5 mph96%29.83 "Hg5 mi
5:54 PM76 °FSprinkles. Mostly cloudy.5 mph98%29.80 "Hg7 mi
4:53 PM77 °FSprinkles. Mostly cloudy.3 mph95%29.78 "Hg7 mi
3:50 PM81 °FMostly cloudy.5 mph83%29.76 "Hg15 mi
2:54 PM82 °FMostly cloudy.3 mph79%29.77 "Hg15 mi
1:52 PM81 °FMostly cloudy.3 mph83%29.85 "Hg15 mi
12:52 PM80 °FSprinkles. Mostly cloudy.3 mph83%29.82 "Hg12 mi
11:53 AM81 °FSprinkles. Mostly cloudy.5 mph83%29.84 "Hg12 mi
10:52 AM83 °FMostly cloudy.3 mph84%29.85 "Hg15 mi
9:52 AM79 °FSprinkles. Mostly cloudy.9 mph87%29.86 "Hg12 mi
8:53 AM83 °FBroken clouds.3 mph81%29.85 "Hg15 mi
7:52 AM81 °FMostly cloudy.5 mph86%29.83 "Hg15 mi
6:50 AM78 °FMostly cloudy.6 mph95%29.81 "Hg15 mi
5:54 AM78 °FMostly cloudy.6 mph95%29.80 "Hg15 mi
4:52 AM78 °FMostly cloudy.6 mph88%29.79 "Hg15 mi
3:54 AM77 °FMostly cloudy.2 mph96%29.80 "Hg15 mi
2:50 AM84 °FMostly cloudy.3 mph71%29.80 "Hg15 mi
1:52 AM78 °FMostly cloudy.2 mph92%29.81 "Hg15 mi
12:55 AM79 °FSprinkles. Mostly cloudy.6 mph91%29.83 "Hg15 mi
11:53 PM
Sat, Feb 28
80 °FOvercast.6 mph88%29.84 "Hg15 mi
10:53 PM79 °FPartly cloudy.3 mph84%29.86 "Hg15 mi
9:53 PM80 °FPartly cloudy.8 mph88%29.85 "Hg15 mi
8:54 PM80 °FSprinkles. Mostly cloudy.9 mph88%29.84 "Hg15 mi
7:53 PM80 °FPartly cloudy.8 mph85%29.82 "Hg15 mi
Weather by CustomWeather, © 2015

See weather overviewHow to use our weather pages